Etusivu
METAR-TAF:

METAR-TAF

Lentoasemat :

Mosjøen, Norja

Leveyspiiri: 65-48N, Pituuspiiri: 013-08E, korkeus merenpinnasta: 70 m

Tämänhetkinen sää

Tämä raportti tehtiin 22 minuuttia sitten, kello 12.20 UTC
Tuuli 2 kn eri suunnista
Lämpötila 4°C
Kosteus 93%
Ilmanpaine 1020 hPa
Näkyvyys 10 km tai enemmän
Muutamia pilviä 4000 ft:n korkeudessa

METAR: ENMS 191220Z VRB02KT 9999 FEW040 04/03 Q1020 RMK WIND 412FT VRB02KT

Aika: 14:42 (12:42 UTC)


TAF: puuttuu

Säähavainnot ja -ennusteet yli 4000 lentoasemalta (METAR- ja TAF-raportit).

Käytössä olevat sääasemat on merkitty karttaan keltaisilla ja punaisilla pisteillä.

Aseta hiiri pisteen päälle nähdäksesi sääaseman nimen.

Klikkaa sitten nähdäksesi säähavainnot ja -ennusteet.

Kartan vaihtaminen: klikkaa mustalla rastilla varustettuja vihreitä pisteitä, niin voit zoomata sisään; viivalla varustettua vihreää pistettä, niin voit zoomata ulos tai vihreitä nuolia, niin pääset viereisille kartoille.


METAR-TAF: